Vertical_Velocity
2 -2 4 0 -1 1 0 -0 -0 -4 1 0 0 -0 -1 1 0 -5 -3 -3 1 -1 1 4 -1 -1 -4 -0 -1 -1 -1 1 -1
-3 3 0 1 0 -1 -1 1 0 -1 -1 1 -0 1 -3 12 7 -4 1 -2 -1 -0 -1 -2 0 0 0 -0 -1 -1 -0 1 0
1 1 2 0 -1 1 -1 0 -0 1 -1 -1 1 0 -4 3 -1 -5 -2 -1 -1 -0 0 -0 -1 -1 -1 -2 1 1 -1 -0 0
1 1 2 1 1 1 -0 -1 0 1 2 1 -1 -0 0 4 -1 -2 -1 -0 1 -1 -1 -2 -1 -0 1 -0 0 -1 -0 0 -1
-2 0 1 0 1 1 -0 1 -1 1 1 1 2 -1 -2 1 0 6 -2 -3 -1 -0 0 0 -1 -0 -1 -0 -2 -0 -1 -2 -1
-2 1 0 -1 0 0 1 1 -0 -2 -0 2 2 2 4 -2 1 -3 2 -1 -1 -1 -1 -1 -0 -1 -1 -0 -1 -1 -2 -2 1
-1 -1 -1 0 -1 -1 -0 -0 2 -0 -2 -1 0 -2 4 2 1 -5 -2 -1 -0 -1 -1 -1 -1 -0 -1 -1 -1 -2 -2 0 -1
1 -1 -3 -1 -1 -1 -3 -3 -2 -2 -2 -4 -2 3 5 1 2 -0 -1 -3 -1 -0 -1 -0 -0 0 -1 -1 -1 0 0 -2 1
2 1 0 -1 -3 -2 -1 -3 -3 -1 1 -0 2 -1 1 1 -0 -4 1 1 -1 -1 -0 0 -0 -0 0 -0 -2 -0 -3 2 -3
3 3 -2 -1 -2 0 -2 0 0 -1 0 1 1 -2 -1 -2 -4 -4 1 0 -1 -1 -1 1 -0 -1 -1 0 -2 -2 0 1 0
-0 1 -2 -3 -1 -1 -0 0 3 -1 1 1 -1 -1 -2 -3 -2 5 -6 -4 -1 -1 -1 -3 -1 -2 -1 -0 -0 -0 -2 -1 -1
1 -1 0 1 -4 1 0 -0 2 0 -3 1 3 1 2 -1 -2 -3 2 -1 -5 -4 -0 1 -0 -0 -1 -1 2 -0 -2 -2 2
3 0 -3 2 -2 -2 1 -2 -1 2 1 -2 -3 -0 -1 3 1 -1 0 2 -3 -3 -4 -4 -1 0 0 2 -1 -1 1 -0 1
2 3 2 1 -1 -1 -3 -1 -1 -0 2 -1 -0 -4 -1 -4 2 0 1 -1 -3 0 -5 -2 -4 -3 -1 -1 -1 -3 -2 -0 -2
2 -1 -1 5 2 1 2 -1 0 -2 -1 2 2 1 -1 -2 -1 -1 -2 -1 -1 2 3 -4 -1 -3 -5 -2 -0 -1 -3 0 1
3 -2 4 3 0 2 0 -1 2 -2 0 3 2 -2 -1 -2 -3 -4 -1 -2 -2 -1 -2 0 1 -3 -1 -5 -2 -1 -2 1 -2
2 -0 -1 2 1 -0 -3 -1 -2 -1 -2 -6 3 0 2 -3 -2 -3 -3 1 -1 -4 -2 1 -1 -0 -5 -1 -1 -2 -3 -2 -2
5 7 0 0 -0 3 2 -2 -1 -7 -2 -4 -7 1 -4 4 -5 -3 -2 -2 -3 2 1 -2 -2 -1 -3 -4 -3 0 -1 -1 -1
2 6 6 -3 1 3 1 3 -3 9 -6 8 -8 2 12 0 7 5 -3 0 -2 1 -1 1 2 -1 -2 2 -2 1 -2 -3 1
-2 -2 5 0 6 -2 6 1 -5 6 4 -1 1 -1 0 -1 2 10 -5 -2 -1 -3 -5 -3 -1 -1 4 -3 -2 0 -3 -0 0
Height
1547 1548 1549 1550 1552 1552 1552 1553 1553 1553 1553 1553 1553 1554 1554 1557 1558 1558 1558 1557 1557 1557 1557 1556 1556 1555 1553 1552 1551 1550 1549 1548 1547
1548 1549 1551 1552 1553 1554 1554 1554 1554 1554 1555 1555 1555 1556 1557 1560 1560 1558 1559 1558 1558 1558 1558 1557 1557 1557 1555 1554 1553 1552 1552 1551 1549
1549 1551 1552 1553 1555 1555 1556 1556 1556 1556 1556 1557 1557 1558 1559 1562 1561 1559 1559 1559 1559 1559 1559 1559 1559 1558 1557 1557 1556 1555 1553 1553 1551
1550 1552 1553 1555 1556 1557 1557 1557 1557 1557 1558 1559 1559 1560 1560 1563 1562 1561 1561 1560 1560 1560 1561 1560 1560 1560 1559 1559 1558 1557 1556 1555 1553
1550 1552 1553 1555 1557 1557 1557 1558 1558 1559 1559 1560 1561 1562 1562 1564 1565 1565 1562 1561 1562 1562 1562 1562 1562 1562 1561 1561 1560 1559 1558 1557 1555
1548 1551 1553 1555 1557 1558 1558 1559 1559 1560 1560 1561 1562 1563 1566 1566 1567 1565 1564 1563 1563 1563 1563 1563 1563 1563 1563 1562 1561 1560 1560 1558 1557
1547 1549 1552 1554 1556 1557 1558 1559 1560 1560 1561 1562 1563 1564 1567 1567 1567 1565 1565 1565 1565 1564 1564 1564 1564 1564 1563 1563 1563 1562 1561 1560 1559
1545 1547 1549 1551 1554 1556 1557 1558 1560 1561 1562 1562 1564 1567 1568 1568 1568 1565 1565 1565 1566 1565 1565 1565 1565 1564 1564 1563 1563 1562 1562 1561 1560
1543 1544 1547 1549 1551 1554 1555 1557 1559 1561 1563 1563 1565 1567 1568 1568 1568 1566 1566 1566 1566 1566 1566 1565 1565 1565 1565 1564 1564 1563 1562 1561 1560
1541 1543 1545 1547 1550 1553 1555 1557 1559 1560 1562 1563 1564 1565 1566 1567 1567 1566 1566 1566 1566 1565 1566 1566 1566 1566 1565 1565 1564 1563 1562 1561 1560
1538 1540 1541 1544 1548 1551 1553 1555 1557 1558 1560 1562 1562 1562 1563 1565 1565 1566 1564 1565 1565 1565 1565 1565 1565 1565 1565 1565 1564 1564 1563 1561 1560
1533 1535 1538 1541 1545 1549 1550 1553 1555 1556 1558 1560 1561 1562 1562 1561 1562 1563 1564 1562 1563 1564 1564 1563 1563 1563 1563 1563 1563 1563 1561 1560 1559
1529 1531 1533 1538 1541 1544 1546 1548 1551 1553 1554 1555 1558 1560 1561 1561 1562 1561 1561 1561 1560 1561 1561 1562 1562 1562 1562 1561 1561 1561 1560 1559 1558
1523 1526 1529 1533 1535 1538 1541 1544 1546 1549 1551 1552 1554 1556 1557 1558 1560 1560 1560 1559 1559 1558 1558 1559 1559 1560 1560 1560 1559 1559 1558 1557 1557
1517 1521 1524 1528 1530 1533 1535 1539 1541 1544 1548 1550 1551 1553 1554 1555 1555 1556 1556 1557 1556 1556 1556 1555 1556 1556 1557 1557 1557 1556 1556 1555 1555
1511 1513 1517 1522 1525 1526 1530 1533 1536 1540 1544 1547 1547 1549 1549 1550 1551 1552 1553 1553 1553 1553 1553 1553 1552 1552 1553 1554 1554 1554 1553 1553 1553
1504 1506 1509 1514 1517 1521 1525 1527 1530 1534 1537 1541 1544 1545 1547 1545 1545 1547 1548 1549 1549 1548 1549 1549 1549 1550 1549 1550 1550 1550 1550 1550 1549
1495 1499 1502 1506 1510 1514 1517 1520 1521 1524 1530 1533 1537 1539 1538 1539 1539 1540 1543 1544 1545 1545 1544 1544 1545 1546 1546 1545 1546 1547 1546 1546 1546
1488 1492 1495 1497 1502 1506 1510 1513 1516 1518 1520 1525 1529 1532 1534 1535 1536 1536 1537 1539 1539 1540 1540 1540 1541 1541 1542 1542 1542 1543 1543 1543 1543
1480 1484 1487 1489 1491 1497 1501 1506 1508 1511 1514 1516 1521 1525 1528 1530 1531 1532 1532 1534 1534 1535 1535 1535 1537 1537 1537 1538 1538 1539 1540 1540 1540